Location: Gro� Glienicke
(52.4675°N, 13.1079°E)
Time: 17:59:36
(UTC+00:00)

CREW DRAGON DEMO-1 DEB - Pass Details

Date: 06 July 2020
Orbit: 368 x 372 km, 51.6° (Epoch: 12 August)

Event Time Altitude Azimuth Distance (km) Brightness Sun altitude
Exits shadow 22:52:55 22° 230° (SW) 871 4.3 -14.9°
Maximum altitude 22:54:36 50° 163° (SSE) 479 2.9 -14.9°
Drops below altitude 10° 22:57:35 10° 86° (E) 1,371 5.7 -14.9°
Sets 22:59:39 0° 81° (E) 2,220 6.8 -14.9°
